Weather in Tangi-Chu

Russia / Chechen Republic     43°04′18″N   45°30′51″E
temp.,
°C
wind,
m/s
gust,
m/s
humid.,
%
clouds,
%
prec.,
mm/h
press.,
hPa
HPBL,
m
18 april, sun
sun1800:00+9ne0188100 0.0 1021115
03:00+9e1189100 0.0 1021177
06:00+8sse0091100 0.0 1021142
09:00+12nne2274100 0.1 1018601
12:00+15nne326295 0.1 1017887
15:00+16ne225896 0.3 1016975
18:00+13e017794 0.6 101881
21:00+13s2383100 1.7 101778
19 april, mon
mon1900:00+11sw0188100 0.1 101715
03:00+11ssw1182100 0.1 101712
06:00+11ssw117615 0.0 101613
09:00+16n32639 0.0 1016594
12:00+19nne325099 0.1 1015971
15:00+20ne334949 0.2 10141208
18:00+15nne236541 0.0 1015273
21:00+11ssw118098 0.0 101610
20 april, tue
tue2000:00+12s227237 0.0 101418
03:00+12s216816 0.0 101320
06:00+13s226278 0.0 101044
09:00+21nne224255 0.0 1007489
12:00+26ne1433100 0.0 10051193
15:00+27w1430100 0.0 10041133
18:00+19ssw2457100 0.1 1006246
21:00+17ssw3359100 0.2 100763
21 april, wed
wed2100:00+15w2368100 0.3 101196
03:00+13nw369088 0.3 1014624
06:00+11nnw2693100 0.8 1017570
09:00+10nw2488100 1.6 1019507
12:00+9n1183100 0.3 1021456
15:00+9nne127897 0.4 1022740
18:00+8nne1184100 0.1 1023255
21:00+8n118997 0.1 1024142
22 april, thu
thu2200:00+7wsw0188100 0.0 1024108
03:00+7e018696 0.1 102373
06:00+7se018697 0.2 102498
09:00+8ne117995 0.2 1024331
12:00+9n217998 0.0 1023547
15:00+8nnw1287100 0.1 1024455
18:00+7nnw1195100 0.4 1025153
21:00+7se1192100 0.9 102568